This is the latest recevied weather packets stored in our database for station/object KD8TSA. If no packets are shown the sender has not sent any weather packets the latest 10 day(s).
| Time | Temp. | Humidity | Pressure | Rain* | Wind** | Luminosity | Snow |
|---|---|---|---|---|---|---|---|
| 1777670390 | 10° C | 74% | 1014 hPa | 0 mm | - | 471 W/m² | - |
| 1777670087 | 10° C | 74% | 1014.1 hPa | 0 mm | - | 239 W/m² | - |
| 1777669785 | 10° C | 74% | 1014.1 hPa | 0 mm | - | 327 W/m² | - |
| 1777669481 | 10.56° C | 74% | 1013.9 hPa | 0 mm | - | 246 W/m² | - |
| 1777669178 | 10° C | 73% | 1013.6 hPa | 0 mm | - | 550 W/m² | - |
| 1777668875 | 10.56° C | 71% | 1013.6 hPa | 0 mm | - | 220 W/m² | - |
| 1777668572 | 10.56° C | 73% | 1013.7 hPa | 0 mm | - | 525 W/m² | - |
| 1777668268 | 11.11° C | 74% | 1013.7 hPa | 0 mm | - | 501 W/m² | - |
| 1777667964 | 10.56° C | 75% | 1013.7 hPa | 0 mm | - | 588 W/m² | - |
| 1777667661 | 10.56° C | 74% | 1013.5 hPa | 0 mm | - | 506 W/m² | - |
| 1777667359 | 10.56° C | 74% | 1013.1 hPa | 0 mm | - | 547 W/m² | - |
| 1777667055 | 10.56° C | 75% | 1013.5 hPa | 0 mm | - | 315 W/m² | - |
| 1777666752 | 11.11° C | 74% | 1013.2 hPa | 0 mm | - | 582 W/m² | - |
| 1777666449 | 11.67° C | 73% | 1013.2 hPa | 0 mm | - | 245 W/m² | - |
| 1777666146 | 11.67° C | 73% | 1013 hPa | 0 mm | - | 596 W/m² | - |
| 1777665843 | 11.67° C | 74% | 1013.1 hPa | 0 mm | - | 581 W/m² | - |
| 1777665541 | 11.11° C | 76% | 1013.1 hPa | 0 mm | - | 606 W/m² | - |
| 1777665236 | 11.67° C | 74% | 1013 hPa | 0 mm | - | 673 W/m² | - |
| 1777664932 | 11.11° C | 74% | 1012.9 hPa | 0 mm | - | 704 W/m² | - |
| 1777664628 | 11.67° C | 72% | 1012.9 hPa | 0 mm | - | 212 W/m² | - |
| 1777664324 | 11.67° C | 72% | 1012.8 hPa | 0 mm | - | 628 W/m² | - |
| 1777664023 | 11.67° C | 72% | 1013 hPa | 0 mm | - | 735 W/m² | - |
| 1777663721 | 11.67° C | 72% | 1012.8 hPa | 0 mm | - | 150 W/m² | - |
| 1777663418 | 12.22° C | 73% | 1012.7 hPa | 0 mm | - | 783 W/m² | - |
| 1777663114 | 12.78° C | 73% | 1012.9 hPa | 0 mm | - | 701 W/m² | - |
* Rain latest hour (hover to see other rain measurements)
** Current wind speed in m/s (hover to see current wind gust speed)